Regional Weather Roundup
Issued by NWS

Home | Current Version | Previous Version | Text Only | Print | Product List | Glossary Off
Versions: 1 2 3 4 5 6 7 8 9 10 11 12 13 14 15 16 17 18 19 20 21 22 23 24 25 26 27 28 29 30 31 32 33 34 35 36 37 38 39 40 41 42 43 44 45 46 47 48 49 50

000
ASUS43 KMPX 230201
RWRMN
WEATHER ROUNDUP FOR MINNESOTA
NATIONAL WEATHER SERVICE TWIN CITIES/CHANHASSEN MN
800 PM CST SAT NOV 22 2014


NOTE: "FAIR" INDICATES FEW OR NO CLOUDS BELOW 12,000 FEET WITH NO
SIGNIFICANT WEATHER AND/OR OBSTRUCTIONS TO VISIBILITY. N/A MEANS
CURRENT SKY AND/OR WEATHER CONDITIONS ARE NOT AVAILABLE.

MNZ060>063-068>070-230300-
   Twin Cities Metro

CITY           SKY/WX    TMP DP  RH WIND       PRES   REMARKS
TWIN CITIES    CLOUDY    36  35  96 SE9       29.59F FOG
ST PAUL        CLOUDY    36  36 100 SE10      29.61F FOG
CRYSTAL        CLOUDY    37  35  92 SE10      29.57F FOG
BLAINE         CLOUDY    37  37 100 SE8       29.58F FOG
LAKEVILLE      CLOUDY    36  36 100 SE7       29.58F FOG
EDEN PRAIRIE   CLOUDY    36  36 100 SE7       29.57F FOG
SOUTH ST PAUL  FOG       37  36  96 SE3       29.60F VSB 1
LAKE ELMO      FOG       36  36 100 SE9       29.61F VSB 1
$$
MNZ001>005-007-008-013>017-022>024-027-028-230300-
   Northwest Minnesota

CITY           SKY/WX    TMP DP  RH WIND       PRES   REMARKS
BEMIDJI        PTCLDY    34  29  80 SE13      29.45F WCI  25
HALLOCK        CLOUDY    36  30  80 E7        29.36F
ROSEAU         CLOUDY    36  30  80 E8        29.42F
WARROAD        MOCLDY    34  30  86 E7        29.44F WCI  28
THIEF RVR FALL CLOUDY    37  30  75 E9        29.40F
CROOKSTON      CLOUDY    36  30  80 S10       29.41S
FOSSTON        MOCLDY    37  28  70 SE12G17   29.40F
DETROIT LAKES  CLOUDY    32  32 100 S16       29.44F WCI  21
MOORHEAD       CLOUDY    36  36 100 S23       29.42F FOG
PARK RAPIDS    CLOUDY    31  30  96 SE17      29.46F WCI  19
MAHNOMEN       FAIR      37  29  75 S9        29.42F
$$
MNZ006-009>011-018-025>026-230300-
   North Central Minnesota

CITY           SKY/WX    TMP DP  RH WIND       PRES   REMARKS
BAUDETTE       MOCLDY    35  30  82 SE7       29.47F WCI  29
FLAG ISLAND    CLOUDY    34  30  86 SE7       29.47S WCI  28
INTL FALLS     MOCLDY    34  30  85 SE8       29.53R WCI  27
WASKISH        CLOUDY    36  30  80 CALM      29.47F
BIG FORK       MOCLDY    36  28  75 SE6       29.52R
LONGVILLE      CLOUDY    32  30  93 SE9       29.51S FOG     WCI  24
GRAND RAPIDS   CLOUDY    32  28  86 SE9       29.53S WCI  24
CRANE LAKE     MOCLDY    30  30 100 CALM      29.57S FOG
ORR            CLOUDY    32  27  80 SE6       29.52S WCI  26
COOK             N/A     32  28  86 SE5       29.55S WCI  27
WALKER         FAIR      32  29  87 S12       29.49S WCI  23
$$
MNZ012-019>021-037-230300-
   Northeast Minnesota

CITY           SKY/WX    TMP DP  RH WIND       PRES   REMARKS
DULUTH         CLOUDY    33  31  92 SE9       29.58F FOG     WCI  25
ELY            MOCLDY    30  28  93 S6        29.56S FOG     WCI  24
HIBBING        CLOUDY    33  29  85 SE8       29.56F WCI  26
EVELETH        CLOUDY    32  30  93 SE5       29.58F FOG     WCI  27
DULUTH HARBOR  CLOUDY    36  32  87 CALM      29.63F
TWO HARBORS    CLOUDY    37  32  81 SE5       29.59F
SILVER BAY     MOCLDY    36  34  93 SE5       29.60S FOG
GRAND MARAIS     N/A     34  31  88 CALM      29.65F
G MARAIS ARPRT CLOUDY    30  28  93 S5        29.61F WCI  25
$$
MNZ029>031-032-039>041-046>048-054>057-064-230300-
   West Central Minnesota

CITY           SKY/WX    TMP DP  RH WIND       PRES   REMARKS
FERGUS FALLS   CLOUDY    34  32  93 SE15      29.48R FOG     WCI  24
WHEATON        CLOUDY    30  30 100 E9        29.44F FOG     WCI  22
MORRIS         FOG       34  34 100 SE15      29.44S VSB 1/2 WCI  24
ALEXANDRIA     FOG       33  32  96 SE14      29.47F VSB 1/2 WCI  23
ELBOW LAKE       N/A     33  33 100 SE15      29.45S FOG     WCI  22
WADENA         CLOUDY    30  30 100 SE12      29.48F FOG     WCI  21
GLENWOOD       FOG       34  34 100 SE12      29.47F VSB 1/2 WCI  25
APPLETON       PTCLDY    36  34  93 SE10      29.45F FOG
BENSON         CLOUDY    36  34  93 S13       29.46F FOG
MADISON        PTCLDY    37  36  93 SE12      29.44R FOG
WILLMAR        FOG       36  34  93 SE15      29.50F VSB 1/2
$$
MNZ033>034-036-042>043-049>051-058-059-230300-
   Central Minnesota

CITY           SKY/WX    TMP DP  RH WIND       PRES   REMARKS
ST CLOUD       FOG       34  33  96 SE9       29.55S VSB 3/4 WCI  27
SAUK CENTRE    FOG       32  32  99 SE13      29.50F VSB 1/2 WCI  23
PAYNESVILLE    FOG       32  32 100 E9        29.52F VSB 1/2 WCI  24
AITKIN         CLOUDY    36  30  80 SE10      29.53F HAZE
PINE RIVER     CLOUDY    32  30  93 S9        29.56S FOG     WCI  24
BRAINERD       CLOUDY    31  31 100 S8        29.55R FOG     WCI  23
STAPLES        CLOUDY    30  30 100 SE8       29.50F FOG     WCI  23
LONG PRAIRIE   FOG       32  32 100 E12       29.50F VSB 1/2 WCI  23
LITTLE FALLS   FOG       32  32 100 SE12      29.54F VSB 1   WCI  23
LITCHFIELD     FOG       36  36 100 SE10      29.53F VSB 1
BUFFALO        FOG       35  33  95 SE7       29.57F VSB 1   WCI  29
MAPLE LAKE     FOG       35  35  99 SE7       29.56F VSB 3/4 WCI  29
$$
MNZ037-044-045-052-053-230300-
   East Central Minnesota

CITY           SKY/WX    TMP DP  RH WIND       PRES   REMARKS
PRINCETON      CLOUDY    36  34  93 SE8       29.57S FOG
MORA           CLOUDY    32  32 100 S9        29.60R FOG     WCI  24
CAMBRIDGE      CLOUDY    36  30  80 SE7       29.56F HAZE
RUSH CITY      CLOUDY    34  33  95 SE13G18   29.59F WCI  25
MOOSE LAKE     CLOUDY    32  32 100 CALM      29.56F FOG
HINCKLEY       CLOUDY    34  34 100 SE10G16   29.60R FOG     WCI  26
CLOQUET        CLOUDY    34  30  86 S6        29.58F FOG     WCI  29
MCGREGOR       CLOUDY    32  32 100 SE8       29.56S WCI  25
$$
MNZ071>073-080-081-089-090-097-098-230300-
   Southwest Minnesota

CITY           SKY/WX    TMP DP  RH WIND       PRES   REMARKS
MONTEVIDEO     MOCLDY    34  34 100 S9        29.47S FOG     WCI  26
GRANITE FALLS  PTCLDY    35  33  94 SE10      29.48F FOG     WCI  27
CANBY          PTCLDY    41  34  75 S17G25    29.42S
MARSHALL       PTCLDY    39  34  81 SW24G31   29.44S
REDWOOD FALLS  PTCLDY    35  33  92 SE16      29.49F FOG     WCI  25
OLIVIA         CLOUDY    36  34  93 SE13      29.49F FOG
PIPESTONE      CLOUDY    37  36  93 S17       29.46S
WINDOM         PTCLDY    39  37  93 S10       29.51S FOG
WORTHINGTON    PTCLDY    37  36  93 S14       29.51F
JACKSON        PTCLDY    39  36  87 S12       29.53F
TRACY          PTCLDY    40  36  87 S18       29.46F
SLAYTON        PTCLDY    38  37  96 S15       29.48F
$$
MNZ065>067-074>077-082>085-091>093-230300-
   South Central Minnesota

CITY           SKY/WX    TMP DP  RH WIND       PRES   REMARKS
MANKATO        CLOUDY    37  34  87 SE13      29.55F
NEW ULM          N/A     36  36 100 S9        29.54S FOG
ST JAMES       PTCLDY    39  37  93 S8        29.54F FOG
FAIRMONT       MOCLDY    41  37  87 S16       29.54F
GLENCOE        CLOUDY    37  37  99 SE9       29.55F FOG
FARIBAULT      CLOUDY    39  37  93 S10       29.58F FOG
OWATONNA       PTCLDY    39  37  93 SE12      29.58F FOG
WASECA         PTCLDY    36  34  93 SE10      29.59S FOG
ALBERT LEA     MOCLDY    39  39 100 S9        29.59F FOG
$$
MNZ078>079-086>088-094>096-230300-
   Southeast Minnesota

CITY           SKY/WX    TMP DP  RH WIND       PRES   REMARKS
ROCHESTER      MOCLDY    37  37 100 S15       29.63F FOG
RED WING       FOG       37  37 100 SE9       29.62F VSB 3/4
STANTON        CLOUDY    40  38  93 S7        29.58F FOG
DODGE CENTER   MOCLDY    37  37 100 S12       29.60S FOG
WINONA         FOG       37  37 100 SE7       29.67F VSB 1/2
AUSTIN         CLOUDY    41  39  93 S10       29.61F FOG
PRESTON        CLOUDY    38  38  97 S10       29.65F FOG
$$
ABBREVIATIONS USED IN REMARKS
   TC - TEMPERATURES IN CELSIUS
  WCI - WIND CHILL INDEX
   HX - HEAT INDEX
  VSB - VISIBILITY
$$



USA.gov is the U.S. government's official web portal to all federal, state and local government web resources and services.